timestamp,wind_dir_avg,wind_spd_max_dir,wind_spd_avg,wind_spd_gust,battery_voltage,lat,long
2018-01-15 00:00:00+00:00,32.0,28.0,4.18,5.05,,47.59359,-54.27349
2018-01-15 00:10:00+00:00,11.0,11.0,5.51,6.15,,47.59359,-54.27349
2018-01-15 00:20:00+00:00,55.0,57.0,5.85,6.54,,47.59359,-54.27349
2018-01-15 00:30:00+00:00,7.0,0.0,7.13,8.31,,47.59359,-54.27349
2018-01-15 00:40:00+00:00,13.0,10.0,7.84,9.11,,47.59359,-54.27349
2018-01-15 00:50:00+00:00,24.0,25.0,5.72,6.65,,47.59359,-54.27349
2018-01-15 01:00:00+00:00,43.0,46.0,5.65,6.26,,47.59359,-54.27349
2018-01-15 01:10:00+00:00,30.0,28.0,5.17,6.01,,47.59359,-54.27349
2018-01-15 01:20:00+00:00,27.0,36.0,4.91,5.55,,47.59359,-54.27349
2018-01-15 01:30:00+00:00,39.0,43.0,5.4,6.15,,47.59359,-54.27349
2018-01-15 01:40:00+00:00,42.0,47.0,4.99,5.43,,47.59359,-54.27349
2018-01-15 01:50:00+00:00,9.0,6.0,5.89,6.58,,47.59359,-54.27349
2018-01-15 02:00:00+00:00,15.0,10.0,5.65,6.25,,47.59359,-54.27349
2018-01-15 02:10:00+00:00,17.0,17.0,6.21,6.93,,47.59359,-54.27349
2018-01-15 02:20:00+00:00,20.0,23.0,6.17,7.55,,47.59359,-54.27349
2018-01-15 02:30:00+00:00,30.0,21.0,5.99,7.2,,47.59359,-54.27349
2018-01-15 02:40:00+00:00,36.0,36.0,5.24,5.87,,47.59359,-54.27349
2018-01-15 02:50:00+00:00,31.0,35.0,6.01,6.58,,47.59359,-54.27349
2018-01-15 03:00:00+00:00,9.0,8.0,6.18,7.0,,47.59359,-54.27349
2018-01-15 03:10:00+00:00,25.0,20.0,5.18,6.21,,47.59359,-54.27349
2018-01-15 03:20:00+00:00,6.0,9.0,6.59,7.4,,47.59359,-54.27349
2018-01-15 03:30:00+00:00,16.0,18.0,6.39,7.16,,47.59359,-54.27349
2018-01-15 03:40:00+00:00,22.0,25.0,6.45,7.8,,47.59359,-54.27349
2018-01-15 03:50:00+00:00,14.0,5.0,7.73,10.35,,47.59359,-54.27349
2018-01-15 04:00:00+00:00,6.0,6.0,10.37,11.23,,47.59359,-54.27349
2018-01-15 04:10:00+00:00,0.0,1.0,9.05,9.62,,47.59359,-54.27349
2018-01-15 04:20:00+00:00,12.0,16.0,7.17,8.12,,47.59359,-54.27349
2018-01-15 04:30:00+00:00,8.0,6.0,8.06,8.71,,47.59359,-54.27349
2018-01-15 04:40:00+00:00,15.0,17.0,7.91,8.74,,47.59359,-54.27349
2018-01-15 04:50:00+00:00,7.0,3.0,7.29,8.16,,47.59359,-54.27349
2018-01-15 05:00:00+00:00,3.0,4.0,7.6,8.27,,47.59359,-54.27349
2018-01-15 05:10:00+00:00,10.0,12.0,8.39,10.5,,47.59359,-54.27349
2018-01-15 05:20:00+00:00,6.0,10.0,8.43,9.11,,47.59359,-54.27349
2018-01-15 05:30:00+00:00,6.0,8.0,9.52,11.26,,47.59359,-54.27349
2018-01-15 05:40:00+00:00,28.0,29.0,7.09,8.34,,47.59359,-54.27349
2018-01-15 05:50:00+00:00,17.0,25.0,7.48,9.01,,47.59359,-54.27349
2018-01-15 06:00:00+00:00,10.0,9.0,9.38,10.44,,47.59359,-54.27349
2018-01-15 06:10:00+00:00,19.0,19.0,7.7,9.28,,47.59359,-54.27349
2018-01-15 06:20:00+00:00,16.0,16.0,7.85,8.42,,47.59359,-54.27349
2018-01-15 06:30:00+00:00,4.0,6.0,8.19,9.06,,47.59359,-54.27349
2018-01-15 06:40:00+00:00,17.0,23.0,6.25,7.25,,47.59359,-54.27349
2018-01-15 06:50:00+00:00,27.0,37.0,6.95,8.6,,47.59359,-54.27349
2018-01-15 07:00:00+00:00,22.0,28.0,6.57,7.61,,47.59359,-54.27349
2018-01-15 07:10:00+00:00,22.0,19.0,6.53,7.62,,47.59359,-54.27349
2018-01-15 07:20:00+00:00,7.0,3.0,7.57,8.29,,47.59359,-54.27349
2018-01-15 07:30:00+00:00,31.0,34.0,5.73,6.54,,47.59359,-54.27349
2018-01-15 07:40:00+00:00,13.0,20.0,6.54,7.74,,47.59359,-54.27349
2018-01-15 07:50:00+00:00,8.0,9.0,7.61,8.68,,47.59359,-54.27349
2018-01-15 08:00:00+00:00,21.0,20.0,6.72,7.85,,47.59359,-54.27349
2018-01-15 08:10:00+00:00,15.0,17.0,7.57,8.02,,47.59359,-54.27349
2018-01-15 08:20:00+00:00,25.0,23.0,6.45,7.69,,47.59359,-54.27349
2018-01-15 08:30:00+00:00,36.0,37.0,7.05,7.9,,47.59359,-54.27349
2018-01-15 08:40:00+00:00,35.0,39.0,7.06,7.8,,47.59359,-54.27349
2018-01-15 08:50:00+00:00,25.0,20.0,6.4,7.42,,47.59359,-54.27349
2018-01-15 09:00:00+00:00,24.0,33.0,5.71,6.63,,47.59359,-54.27349
2018-01-15 09:10:00+00:00,33.0,26.0,6.8,7.84,,47.59359,-54.27349
2018-01-15 09:20:00+00:00,28.0,32.0,6.51,7.64,,47.59359,-54.27349
2018-01-15 09:30:00+00:00,36.0,53.0,6.15,7.39,,47.59359,-54.27349
2018-01-15 09:40:00+00:00,31.0,33.0,7.64,8.77,,47.59359,-54.27349
2018-01-15 09:50:00+00:00,27.0,28.0,7.82,9.0,,47.59359,-54.27349
2018-01-15 10:00:00+00:00,32.0,39.0,7.58,8.76,,47.59359,-54.27349
2018-01-15 10:10:00+00:00,25.0,34.0,7.95,9.61,,47.59359,-54.27349
2018-01-15 10:20:00+00:00,36.0,39.0,8.08,9.11,,47.59359,-54.27349
2018-01-15 10:30:00+00:00,30.0,37.0,6.52,7.57,,47.59359,-54.27349
2018-01-15 10:40:00+00:00,28.0,29.0,7.78,8.64,,47.59359,-54.27349
2018-01-15 10:50:00+00:00,31.0,37.0,7.3,8.23,,47.59359,-54.27349
2018-01-15 11:00:00+00:00,27.0,27.0,7.79,8.62,,47.59359,-54.27349
2018-01-15 11:10:00+00:00,35.0,36.0,8.04,9.04,,47.59359,-54.27349
2018-01-15 11:20:00+00:00,33.0,35.0,7.31,8.05,,47.59359,-54.27349
2018-01-15 11:30:00+00:00,25.0,24.0,6.0,7.79,,47.59359,-54.27349
2018-01-15 11:40:00+00:00,22.0,24.0,7.47,8.9,,47.59359,-54.27349
2018-01-15 11:50:00+00:00,33.0,30.0,7.2,9.1,,47.59359,-54.27349
2018-01-15 12:00:00+00:00,33.0,36.0,7.09,7.97,,47.59359,-54.27349
2018-01-15 12:10:00+00:00,43.0,34.0,7.31,8.24,,47.59359,-54.27349
2018-01-15 12:20:00+00:00,38.0,40.0,6.88,8.05,,47.59359,-54.27349
2018-01-15 12:30:00+00:00,49.0,60.0,6.84,7.63,,47.59359,-54.27349
2018-01-15 12:40:00+00:00,30.0,30.0,8.19,9.65,,47.59359,-54.27349
2018-01-15 12:50:00+00:00,28.0,29.0,6.85,7.83,,47.59359,-54.27349
2018-01-15 13:00:00+00:00,24.0,28.0,6.05,7.54,,47.59359,-54.27349
2018-01-15 13:10:00+00:00,33.0,38.0,6.02,7.53,,47.59359,-54.27349
2018-01-15 13:20:00+00:00,49.0,45.0,5.69,6.84,,47.59359,-54.27349
2018-01-15 13:30:00+00:00,36.0,41.0,6.2,7.56,,47.59359,-54.27349
2018-01-15 13:40:00+00:00,50.0,45.0,6.78,7.83,,47.59359,-54.27349
2018-01-15 13:50:00+00:00,41.0,41.0,7.03,8.1,,47.59359,-54.27349
2018-01-15 14:00:00+00:00,45.0,59.0,6.78,8.35,,47.59359,-54.27349
2018-01-15 14:10:00+00:00,45.0,56.0,7.5,8.99,,47.59359,-54.27349
2018-01-15 14:20:00+00:00,48.0,53.0,6.28,7.64,,47.59359,-54.27349
2018-01-15 14:30:00+00:00,53.0,57.0,6.67,7.98,,47.59359,-54.27349
2018-01-15 14:40:00+00:00,51.0,60.0,6.6,7.88,,47.59359,-54.27349
2018-01-15 14:50:00+00:00,61.0,68.0,6.59,7.61,,47.59359,-54.27349
2018-01-15 15:00:00+00:00,54.0,60.0,6.55,8.14,,47.59359,-54.27349
2018-01-15 15:10:00+00:00,60.0,58.0,5.77,6.44,,47.59359,-54.27349
2018-01-15 15:20:00+00:00,61.0,61.0,7.18,7.91,,47.59359,-54.27349
2018-01-15 15:30:00+00:00,57.0,58.0,5.8,6.69,,47.59359,-54.27349
2018-01-15 15:40:00+00:00,67.0,73.0,5.93,6.88,,47.59359,-54.27349
2018-01-15 15:50:00+00:00,58.0,51.0,6.59,8.65,,47.59359,-54.27349
2018-01-15 16:00:00+00:00,59.0,53.0,6.19,6.98,,47.59359,-54.27349
2018-01-15 16:10:00+00:00,65.0,77.0,5.83,6.54,,47.59359,-54.27349
2018-01-15 16:20:00+00:00,55.0,50.0,5.63,7.42,,47.59359,-54.27349
2018-01-15 16:30:00+00:00,69.0,71.0,6.52,7.61,,47.59359,-54.27349
2018-01-15 16:40:00+00:00,49.0,53.0,6.42,7.33,,47.59359,-54.27349
2018-01-15 16:50:00+00:00,50.0,51.0,5.64,6.31,,47.59359,-54.27349
2018-01-15 17:00:00+00:00,71.0,74.0,6.23,8.5,,47.59359,-54.27349
2018-01-15 17:10:00+00:00,57.0,49.0,6.47,7.4,,47.59359,-54.27349
2018-01-15 17:20:00+00:00,66.0,61.0,6.93,7.97,,47.59359,-54.27349
2018-01-15 17:30:00+00:00,45.0,42.0,6.86,7.94,,47.59359,-54.27349
2018-01-15 17:40:00+00:00,56.0,62.0,6.26,7.18,,47.59359,-54.27349
2018-01-15 17:50:00+00:00,75.0,77.0,6.38,7.25,,47.59359,-54.27349
2018-01-15 18:00:00+00:00,56.0,59.0,6.92,8.36,,47.59359,-54.27349
2018-01-15 18:10:00+00:00,63.0,70.0,5.55,6.48,,47.59359,-54.27349
2018-01-15 18:20:00+00:00,73.0,74.0,5.37,6.53,,47.59359,-54.27349
2018-01-15 18:30:00+00:00,66.0,61.0,5.43,6.72,,47.59359,-54.27349
2018-01-15 18:40:00+00:00,67.0,74.0,5.73,6.91,,47.59359,-54.27349
2018-01-15 18:50:00+00:00,71.0,67.0,6.87,8.15,,47.59359,-54.27349
2018-01-15 19:00:00+00:00,60.0,60.0,6.32,7.37,,47.59359,-54.27349
2018-01-15 19:10:00+00:00,62.0,60.0,7.64,8.4,,47.59359,-54.27349
2018-01-15 19:20:00+00:00,68.0,65.0,5.89,7.25,,47.59359,-54.27349
2018-01-15 19:30:00+00:00,64.0,67.0,6.31,7.54,,47.59359,-54.27349
2018-01-15 19:40:00+00:00,55.0,62.0,5.44,6.99,,47.59359,-54.27349
2018-01-15 19:50:00+00:00,73.0,74.0,6.41,7.93,,47.59359,-54.27349
2018-01-15 20:00:00+00:00,66.0,79.0,6.3,8.78,,47.59359,-54.27349
2018-01-15 20:10:00+00:00,79.0,86.0,4.87,5.96,,47.59359,-54.27349
2018-01-15 20:20:00+00:00,59.0,71.0,5.78,8.92,,47.59359,-54.27349
2018-01-15 20:30:00+00:00,71.0,74.0,7.27,8.12,,47.59359,-54.27349
2018-01-15 20:40:00+00:00,72.0,75.0,5.41,6.52,,47.59359,-54.27349
2018-01-15 20:50:00+00:00,83.0,88.0,5.65,6.72,,47.59359,-54.27349
2018-01-15 21:00:00+00:00,71.0,76.0,6.45,8.43,,47.59359,-54.27349
2018-01-15 21:10:00+00:00,66.0,65.0,5.7,6.59,,47.59359,-54.27349
2018-01-15 21:20:00+00:00,90.0,94.0,4.97,6.71,,47.59359,-54.27349
2018-01-15 21:30:00+00:00,87.0,87.0,6.01,7.33,,47.59359,-54.27349
2018-01-15 21:40:00+00:00,83.0,90.0,5.32,6.84,,47.59359,-54.27349
2018-01-15 21:50:00+00:00,89.0,85.0,4.72,7.08,,47.59359,-54.27349
2018-01-15 22:00:00+00:00,83.0,89.0,5.47,6.22,,47.59359,-54.27349
2018-01-15 22:10:00+00:00,83.0,75.0,6.17,7.95,,47.59359,-54.27349
2018-01-15 22:20:00+00:00,89.0,92.0,4.62,5.36,,47.59359,-54.27349
2018-01-15 22:30:00+00:00,75.0,78.0,6.55,7.56,,47.59359,-54.27349
2018-01-15 22:40:00+00:00,67.0,70.0,6.94,7.98,,47.59359,-54.27349
2018-01-15 22:50:00+00:00,73.0,80.0,7.28,8.43,,47.59359,-54.27349
2018-01-15 23:00:00+00:00,72.0,69.0,7.73,8.81,,47.59359,-54.27349
2018-01-15 23:10:00+00:00,76.0,77.0,7.53,9.2,,47.59359,-54.27349
2018-01-15 23:20:00+00:00,80.0,73.0,7.24,8.14,,47.59359,-54.27349
2018-01-15 23:30:00+00:00,78.0,65.0,7.32,9.28,,47.59359,-54.27349
2018-01-15 23:40:00+00:00,85.0,84.0,8.56,9.38,,47.59359,-54.27349
2018-01-15 23:50:00+00:00,75.0,76.0,8.42,9.76,,47.59359,-54.27349
